DELTA 1 DEB

Satellite information

Favourite Embed

Satellite Type and Status

DEBRISIN ORBIT

Key statistics

Satellite DELTA 1 DEB at a glance.

Uptime

17684

Days in orbit

Revolutions

≈ 14.1

Per day

Orbit

LEO

Low Earth Orbit

Inclination

29.1

Latest

Satellite identification and parameters

Extended collection of information and parameters for DELTA 1 DEB.

Object identification

Identified? True

Debris? True

Object name: DELTA 1 DEB

International designator: 1977-065AX

Object number (NORAD): 10220

Object ID (CCSDS): 10220

Country: UNITED STATES OF AMERICA (US)

Current information (Y/N): Y

RCS size: SMALL

Orbital parameters

Period: 102.258 minutes

Inclination: 29.1365 deg

SMA: 7243.651 km

Apoapsis: 1129.231 km

Periapsis: 601.801 km

RAAN: 94.701 deg

Eccentricy: 0.0364064

Argument of periapsis: 183.3683 deg

Mean anomaly: 176.4411 deg

Mean motion: 14.08207015 rev/day

Mean motion (dot): 0.00029756 rev/day2

B* drag term: 0.0092469736 1/REarth

Two-line elements (TLE)

Creation date: Dec. 10, 2025, 7:58 p.m.

Reference frame: TEME

Reference center: EARTH

Epoch: Dec. 10, 2025, 11:16 a.m. UTC

TLE line 0: 0 DELTA 1 DEB

TLE line 1: 1 10220U 77065AX 25344.46976652 .00029756 00000-0 92470-2 0 9996

TLE line 2: 2 10220 29.1365 94.7010 0364064 183.3683 176.4411 14.08207015349883

Live tracking on map

Real-time ground track for satellite DELTA 1 DEB.

In-orbit conjunctions

A list of the most updated potential collisions computed for object DELTA 1 DEB.

Target Orbit TCA Probability of collision Miss distance Type
SL-14 R/B LEO 2024-11-26 07:59:25 0.0004278899 81.0 (m) ROCKET BODY

Associated space launch

Japanese meteorological satellite built by Hughes Space and Communications Company

DELTA 1 DEB was lifted into orbit during the mission ‘Delta 2914 | Himawari’, on board a Delta 2914 space rocket.

The launch took place on July 14, 1977, 10:39 a.m. from Space Launch Complex 17B.

For more information about the launch, click the button.

Launch to space Delta 2914 | Himawari
Delta 2914 | Himawari

Agency: N/A

Status: Launch Successful

Launch date: July 14, 1977, 10:39 a.m. UTC

Rocket: Delta 2914

Launch pad: Space Launch Complex 17B

Location: Cape Canaveral SFS, FL, USA

...

Latest news about this satellite

There are no fresh news available about this satellite. Check back as we update our databases every day.


Newsletter sign-up

Weekly statistics, charts and insights to help you stay on top of the space industry.